Regional Weather Roundup
Issued by NWS

Home | Current Version | Previous Version | Graphics & Text | Print | Product List | Glossary On
Versions: 1 2 3 4 5 6 7 8 9 10 11 12 13 14 15 16 17 18 19 20 21 22 23 24 25 26 27 28 29 30 31 32 33 34 35 36 37 38 39 40 41 42 43 44 45 46 47 48 49 50
000
ASUS45 KABQ 230310
RWRNM
NEW MEXICO REGIONAL WEATHER ROUNDUP
NATIONAL WEATHER SERVICE ALBUQUERQUE NM
900 PM MDT FRI MAY 22 2015

NOTE: "FAIR" MEANS FEW OR NO CLOUDS BELOW 12,000 FEET AGL WITH NO
       SIGNIFICANT WEATHER OR OBSTRUCTIONS TO VISION.

      THIS PRODUCT IS RELEASED AS TWO VERSIONS.  ONE VERSION NEAR
      THE TOP OF THE HOUR CONTAINING PRELIMINARY DATA FROM ALBUQUERQUE
      AND OTHER STATIONS.  A FINAL VERSION WITH ADDITIONAL DATA IS
      ISSUED ABOUT 10 MINUTES AFTER THE HOUR.

NMZ501-503-504-510>518-230400-
NORTHWEST PLATEAU/NORTHCENTRAL MOUNTAINS

CITY           SKY/WX    TMP DP  RH WIND       PRES   REMARKS
FARMINGTON     PTCLDY    59  38  45 W6        29.89R
LOS ALAMOS     CLOUDY    55  39  53 S5        30.04S
SANTA FE       PTCLDY    58  37  45 SE13      29.98S
TAOS           CLOUDY    54  36  50 CALM      30.06S
ANGEL FIRE     CLOUDY    49  40  72 S3        30.14R

$$
NMZ402-403-502-505>509-230400-
WESTCENTRAL MOUNTAINS/SOUTHWEST MOUNTAINS

CITY           SKY/WX    TMP DP  RH WIND       PRES   REMARKS
GALLUP         CLOUDY    58  16  19 SW20G29   29.98R
GRANTS         CLOUDY    60  17  18 W12       29.98R
SILVER CITY    CLEAR     66  10  11 SW9       30.00S

$$
NMZ407-409-411-412-230400-
SOUTHERN DESERTS

CITY           SKY/WX    TMP DP  RH WIND       PRES   REMARKS
LORDSBURG      FAIR      70  16  12 W12       29.94R
DEMING         PTCLDY    75  16  10 W12       29.92R
LAS CRUCES     MOCLDY    76  13   9 W14       29.91S
HOLLOMAN AFB   PTCLDY    72  32  22 SW10      29.87R
ALAMOGORDO     PTCLDY    77  16  10 SW9G18    29.90R
T OR C         CLEAR     73  19  13 SW10      29.90R

$$
NMZ519>523-230400-
CENTRAL VALLEYS/CENTRAL HIGHLANDS

CITY           SKY/WX    TMP DP  RH WIND       PRES   REMARKS
ALBUQUERQUE    PTCLDY    68  30  24 SE17      29.91S
DOUBLE EAGLE   PTCLDY    63  37  39 SE13      29.94R
MORIARTY ARPT  FAIR      58  41  53 SE18      30.02R
CLINES CORNERS CLEAR     53  49  86 SE14      30.06R
BELEN          FAIR      69  15  12 S12       29.90R
SOCORRO        FAIR      72  16  12 SW13G23   29.89R

$$
NMZ524>526-539-540-230400-
SOUTHCENTRAL MOUNTAINS

CITY           SKY/WX    TMP DP  RH WIND       PRES   REMARKS
RUIDOSO        CLOUDY    57  54  88 SE20      30.11R

$$
NMZ527>531-230400-
NORTHEAST HIGHLANDS/NORTHEAST PLAINS

CITY           SKY/WX    TMP DP  RH WIND       PRES   REMARKS
LAS VEGAS      PTCLDY    52  47  83 S14       30.08R
RATON          MOCLDY    55  46  71 S14       30.04R
CLAYTON        PTCLDY    58  52  80 S16       30.01R

$$
NMZ532>537-230400-
EASTCENTRAL PLAINS

CITY           SKY/WX    TMP DP  RH WIND       PRES   REMARKS
TUCUMCARI      CLOUDY    62  55  77 S14       30.01R
CANNON AFB     NOT AVBL
CLOVIS AIRPORT CLOUDY    59  55  88 SE15      30.07R

$$
NMZ028-029-538-230400-
SOUTHEAST PLAINS

CITY           SKY/WX    TMP DP  RH WIND       PRES   REMARKS
ROSWELL        PTCLDY    67  59  75 SE17G28   29.96R
ARTESIA        MOCLDY    70  64  83 SE14      29.95F
CARLSBAD       LGT RAIN  70  65  84 SE8       29.94S
HOBBS          FOG       63  63 100 E16       30.00S VSB 1/2


$$



USA.gov is the U.S. government's official web portal to all federal, state and local government web resources and services.